Regional Weather Roundup
Issued by NWS

Home | Current Version | Previous Version | Text Only | Print | Product List | Glossary Off
Versions: 1 2 3 4 5 6 7 8 9 10 11 12 13 14 15 16 17 18 19 20 21 22 23 24 25 26 27 28

000
ASUS45 KCYS 292110
RWRWY

WYOMING REGIONAL WEATHER ROUNDUP
NATIONAL WEATHER SERVICE CHEYENNE WY
300 PM MDT WED OCT 29 2014

NOTE:  "FAIR" INDICATES FEW OR NO CLOUDS BELOW 12,000 FEET
WITH NO SIGNIFICANT WEATHER AND/OR OBSTRUCTIONS TO VISIBILITY.

WYZ001-292200-
YELLOWSTONE NATIONAL PARK

CITY           SKY/WX    TMP DP  RH WIND       PRES   REMARKS
LK YELLOWSTONE   N/A     41  24  51 VRB5      30.27
W YELLOWSTONE  NOT AVBL

$$
WYZ002>013-054>058-071-098>099-292200-
NORTHERN WYOMING

CITY           SKY/WX    TMP DP  RH WIND       PRES   REMARKS
JACKSON        PTSUNNY   52  28  40 SW12G18   30.22F
CODY           SUNNY     55  25  30 SW17G29   30.10
GREYBULL       MOSUNNY   60  21  22 S7        30.06F
WORLAND        SUNNY     61  21  21 CALM      30.07F
SHERIDAN       MOSUNNY   65  21  18 NW26G37   30.00S
BUFFALO        MOSUNNY   64  21  19 NW10G25   30.05S
GILLETTE       PTSUNNY   59  29  31 NW7       30.03R
HULETT         FAIR      55  32  41 NW9       30.02
NEWCASTLE      FAIR      55  27  33 N16G24    30.03

$$
WYZ014>020-022>026-101>103-292200-
CENTRAL WYOMING

CITY           SKY/WX    TMP DP  RH WIND       PRES   REMARKS
BIG PINEY      LGT RAIN  55  26  32 NW16G26   30.26F
PINEDALE       CLOUDY    50  27  40 W21G26    30.26
DUBOIS         MOCLDY    48  27  43 NW20G35   30.20S HAZE
LANDER         SUNNY     62  24  23 W17G23    30.12S
RIVERTON       PTSUNNY   62  23  22 NW22      30.12F
CASPER         SUNNY     63  22  20 W26G36    30.09R
DOUGLAS        SUNNY     64  20  18 W28G37    30.07R

$$
WYZ021-027>030-104>119-292200-
SOUTHERN WYOMING

CITY           SKY/WX    TMP DP  RH WIND       PRES   REMARKS
EVANSTON       MOSUNNY   57  26  30 SW18G28   30.31S
KEMMERER       CLEAR     54  27  35 W20G29    30.28S
FORT BRIDGER   FAIR      59  28  30 W18G25    30.31F
ROCK SPRINGS   SUNNY     56  24  29 W31G41    30.25F
DIXON          FAIR      60  18  19 SW16G23   30.27F
RAWLINS        MOSUNNY   54  19  25 W21G29    30.21F
SARATOGA       FAIR      55  19  24 W22G31    30.25S
LARAMIE        PTSUNNY   56  20  24 W35G43    30.17S
CHEYENNE       SUNNY     63  19  18 W23G35    30.11F
TORRINGTON     SUNNY     70  15  12 W25G31    29.99S
PINE BLUFFS    FAIR      68  19  15 W25G35    30.05F

$$



USA.gov is the U.S. government's official web portal to all federal, state and local government web resources and services.